Location: Roland
(31.1349°N, 85.4372°W)
Time: 02:21:41
(UTC+00:00)

Altair - All Passes

Search period start: 21 April 2021 00:00
Search period end: 01 May 2021 00:00
Orbit: 1501 x 1683 km, 47.2° (Epoch: 20 April)

Date Brightness Start Highest point End Pass type
(mag) Time Alt. Az. Time Alt. Az. Time Alt. Az.
21 Apr - 08:22:07 10° S 08:30:28 30° SE 08:38:38 10° ENE visible
21 Apr - 10:24:36 10° SW 10:34:41 81° NW 10:44:26 10° NE visible
21 Apr - 12:31:49 10° W 12:40:39 36° NNW 12:49:12 10° NE daylight
21 Apr - 14:39:43 10° NW 14:47:59 31° N 14:55:59 10° ENE daylight
21 Apr - 16:45:07 10° NW 16:54:25 61° NNE 17:03:28 10° ESE daylight
21 Apr - 18:50:19 10° WNW 18:58:50 43° SW 19:07:16 10° SSE daylight
22 Apr - 07:57:22 10° S 08:05:21 27° SE 08:13:11 10° ENE visible
22 Apr - 09:59:21 10° SW 10:09:28 86° NW 10:19:15 10° NE visible
22 Apr - 12:06:20 10° W 12:15:18 37° NNW 12:24:00 10° NE daylight
22 Apr - 14:14:22 10° NW 14:22:37 30° N 14:30:36 10° ENE daylight
22 Apr - 16:19:55 10° NW 16:29:11 57° NNE 16:38:11 10° ESE daylight
22 Apr - 18:25:01 10° WNW 18:33:45 47° SW 18:42:21 10° SSE daylight
23 Apr - 07:32:40 10° S 07:40:14 24° SE 07:47:40 10° ENE visible
23 Apr - 09:34:07 10° SW 09:44:15 88° SE 09:54:04 10° NE visible
23 Apr - 11:40:51 10° W 11:49:57 39° NNW 11:58:47 10° NE daylight
23 Apr - 13:48:59 10° NW 13:57:14 30° N 14:05:13 10° ENE daylight
23 Apr - 15:54:43 10° NW 16:03:57 53° NNE 16:12:53 10° ESE daylight
23 Apr - 17:59:43 10° WNW 18:08:38 52° SW 18:17:24 10° SSE daylight
24 Apr - 07:08:05 10° S 07:15:07 22° SE 07:22:04 10° E visible
24 Apr - 09:08:55 10° SW 09:19:02 82° SE 09:28:52 10° NE visible
24 Apr - 11:15:22 10° W 11:24:37 41° NNW 11:33:35 10° NE daylight
24 Apr - 13:23:36 10° NW 13:31:50 30° N 13:39:50 10° ENE daylight
24 Apr - 15:29:30 10° NW 15:38:41 50° NNE 15:47:34 10° ESE daylight
24 Apr - 17:34:27 10° WNW 17:43:32 58° SW 17:52:25 10° SSE daylight
24 Apr - 19:45:50 10° WSW 19:46:50 10° WSW 19:47:50 10° SW daylight
25 Apr - 06:43:34 10° SSE 06:50:01 19° SE 06:56:23 10° E visible
25 Apr - 08:43:45 10° SW 08:53:50 76° SE 09:03:40 10° NE visible
25 Apr - 10:49:55 10° W 10:59:18 43° NNW 11:08:24 10° NE daylight
25 Apr - 12:58:11 10° WNW 13:06:28 30° N 13:14:29 10° ENE daylight
25 Apr - 15:04:17 10° NW 15:13:25 47° NNE 15:22:14 10° E daylight
25 Apr - 17:09:11 10° WNW 17:18:25 63° SW 17:27:25 10° SSE daylight
25 Apr - 19:18:28 10° W 19:21:47 12° WSW 19:25:06 10° SW daylight
26 Apr - 06:19:12 10° SSE 06:24:55 17° ESE 06:30:34 10° E visible
26 Apr - 08:18:36 10° SW 08:28:39 70° SE 08:38:28 10° NE visible
26 Apr - 10:24:27 10° W 10:33:58 46° NNW 10:43:12 10° NE visible
26 Apr - 12:32:44 10° WNW 12:41:04 30° N 12:49:07 10° ENE daylight
26 Apr - 14:39:03 10° NW 14:48:07 44° NNE 14:56:53 10° E daylight
26 Apr - 16:43:56 10° NW 16:53:17 69° SW 17:02:22 10° SE daylight
26 Apr - 18:52:13 10° W 18:56:44 15° WSW 19:01:13 10° SSW daylight
27 Apr - 05:55:01 10° SSE 05:59:50 14° ESE 06:04:34 10° E visible
27 Apr - 07:53:30 10° SSW 08:03:28 65° SE 08:13:15 10° NE visible
27 Apr - 09:59:01 10° W 10:08:40 48° NNW 10:18:02 10° NE visible
27 Apr - 12:07:17 10° WNW 12:15:40 30° N 12:23:47 10° NE daylight
27 Apr - 14:13:48 10° NW 14:22:50 42° NNE 14:31:31 10° E daylight
27 Apr - 16:18:43 10° NW 16:28:09 76° SW 16:37:18 10° SE daylight
27 Apr - 18:26:17 10° W 18:31:40 17° WSW 18:37:01 10° SSW daylight
28 Apr - 05:31:13 10° SE 05:34:43 12° ESE 05:38:12 10° E visible
28 Apr - 07:28:25 10° SSW 07:38:18 59° SE 07:48:00 10° ENE visible
28 Apr - 09:33:36 10° WSW 09:43:21 51° NNW 09:52:51 10° NE visible
28 Apr - 11:41:49 10° WNW 11:50:16 30° N 11:58:27 10° NE daylight
28 Apr - 13:48:33 10° NW 13:57:31 40° NNE 14:06:09 10° E daylight
28 Apr - 15:53:29 10° NW 16:03:00 82° SW 16:12:12 10° SE daylight
28 Apr - 18:00:32 10° W 18:06:37 20° SW 18:12:40 10° SSW daylight
29 Apr - 05:08:50 10° SE 05:09:38 10° ESE 05:10:26 10° ESE visible
29 Apr - 07:03:22 10° SSW 07:13:08 54° SE 07:22:44 10° ENE visible
29 Apr - 09:08:12 10° WSW 09:18:04 55° NNW 09:27:40 10° NE visible
29 Apr - 11:16:21 10° WNW 11:24:52 31° N 11:33:08 10° NE daylight
29 Apr - 13:23:17 10° NW 13:32:12 38° NNE 13:40:46 10° E daylight
29 Apr - 15:28:15 10° NW 15:37:50 88° SW 15:47:05 10° SE daylight
29 Apr - 17:34:54 10° WNW 17:41:34 22° SW 17:48:09 10° S daylight
30 Apr - 06:38:21 10° SSW 06:47:58 50° SE 06:57:27 10° ENE visible
30 Apr - 08:42:49 10° WSW 08:52:46 58° NNW 09:02:29 10° NE visible
30 Apr - 10:50:52 10° WNW 10:59:28 31° N 11:07:50 10° NE daylight
30 Apr - 12:58:00 10° NW 13:06:51 37° NNE 13:15:23 10° E daylight
30 Apr - 15:03:02 10° NW 15:12:40 86° NE 15:21:56 10° SE daylight
30 Apr - 17:09:20 10° WNW 17:16:30 25° SW 17:23:34 10° S daylight
